Home   Weather   Port Elizabeth   Past weeks

Flag for South Africa Past Weather in Port Elizabeth, South Africa — Yesterday and Last 2 Weeks

Now
61 °F

Light rain. Passing clouds.


Feels Like: 61 °F
Forecast: 62 / 73 °F
Wind: No wind

Location: Port Elizabeth Airport

Current Time: Dec 9, 2016 at 11:28:51 pm

Latest Report: Dec 9, 2016 at 11:00 pm


Visibility: N/A

Pressure: 30.09 "Hg

Humidity: 94%

Dew Point: 59 °F

Location of Port ElizabethLocation

Past Weather in Port Elizabeth — Graph

°F

Port Elizabeth Temperature Yesterday

Maximum temperature yesterday: 79 °F (at 12:00 pm)
Minimum temperature yesterday: 63 °F (at 2:00 am)
Average temperature yesterday: 70 °F

High & Low Weather Summary for the Past Weeks

 TemperatureHumidityPressure
High86 °F (Dec 6, 4:00 pm)100% (Dec 3, 5:00 am)30.21 "Hg (Dec 3, 5:00 am)
Low54 °F (Nov 30, 2:00 am)35% (Dec 6, 4:00 pm)29.65 "Hg (Dec 3, 4:00 pm)
Average69 °F74%29.97 "Hg
* Reported Nov 24 10:00 pm — Dec 9 10:00 pm, Port Elizabeth, Weather by CustomWeather, © 2016

Note: Actual official high and low records may vary slightly from our data, if they occured in-between our weather recording intervals... More about our weather records

Advertising

Port Elizabeth Weather History for the Previous 24 Hours

Scroll right to see more
 ConditionsComfort  
Time TempWeatherWind HumidityBarometerVisibility
10:00 pm
Fri, Dec 9
63 °FLight rain. Partly cloudy.5 mph94%30.09 "HgN/A
9:00 pm63 °FPassing clouds.6 mph94%30.07 "HgN/A
8:00 pm63 °FPartly cloudy.7 mph94%30.04 "HgN/A
7:55 pm63 °FPartly cloudy.7 mph94%30.04 "HgN/A
7:00 pm63 °FOvercast.7 mph100%30.01 "HgN/A
6:00 pm63 °FBroken clouds.6 mph94%29.98 "HgN/A
5:58 pm63 °FBroken clouds.8 mph94%29.98 "HgN/A
5:00 pm64 °FPartly sunny.14 mph94%29.98 "Hg5 mi
4:00 pm64 °FLight rain. Partly sunny.12 mph94%29.98 "Hg4 mi
3:00 pm64 °FPartly sunny.12 mph94%29.95 "Hg4 mi
2:00 pm68 °FPartly sunny.15 mph83%29.92 "HgN/A
1:00 pm68 °FPartly sunny.13 mph78%29.95 "HgN/A
12:00 pm68 °FLight rain. Scattered clouds.20 mph83%29.95 "HgN/A
11:00 am72 °FPassing clouds.37 mph65%29.89 "HgN/A
10:00 am75 °FSunny.30 mph50%29.89 "Hg10 mi
9:00 am75 °FSunny.28 mph41%29.86 "Hg10 mi
8:00 am75 °FSunny.17 mph44%29.86 "Hg10 mi
7:57 am75 °FSunny.17 mph44%29.86 "Hg10 mi
7:00 am70 °FSunny.8 mph46%29.86 "Hg10 mi
6:00 am64 °FSunny.6 mph56%29.83 "Hg10 mi
5:00 am64 °FSunny.5 mph60%29.83 "Hg10 mi
4:00 am64 °FPassing clouds.5 mph64%29.83 "HgN/A
1:00 am63 °FClear.3 mph77%29.86 "Hg10 mi
12:00 am63 °FClear.5 mph77%29.89 "Hg10 mi
11:00 pm
Thu, Dec 8
66 °FClear.7 mph78%29.92 "Hg10 mi
Weather by CustomWeather, © 2016

See weather overviewHow to use our weather pages